CZ-6A DEB, 54976

Orbit data source: Space-Track

CZ-6A DEB, 54976 is space debris in SSO originally from a launch on Fri, 11 Nov 2022 UTC launched from the Taiyaun Space Center, China (TSC). Debris objects in space refer to the collection of defunct objects orbiting the Earth. Examples of debris include non-operational satellites, rocket bodies, and fragments generated from explosions, collisions, or faulty payload assembly.

Loading next visibility...
Identifier
54976, 2022-151TR
Orbit
SSO
Country
Flag of CNCN / PRC
Related business
Manufacturer
SAST
Mission
Spacecraft
Bus & Motor
Unknown
Mass
Unknown
Launch date (UTC)
2022-11-11 (4 years ago)
Launch vehicle
Unknown
Launch site
Taiyaun Space Center, China (TSC)
Object type
Payload
Rocket body
Debris
Shape & HBR
Unknown shape, 0.1 m
Radar Cross Section
Small (<0.1 m²)

Expand to show TLE details & history
Last TLE update: 16 hours ago

TLE from 16 hours ago
0 CZ-6A DEB
1 54976U 22151TR  26236.44850861  .00001651  00000-0  84361-3 0  9995
2 54976  98.8488 240.2360 0055111 137.9272 222.6153 14.16183451194176
Epoch: 2026-08-24T10:45Z
TLE epoch observation values (Epoch: 2026-08-24T10:45:51.143Z)
Latitude
-0.00009°
Longitude
106.04286°
Altitude
870.567 km
Speed
7.402 km/s
True Right ascension
16h 00m 56s
True Declination
0° 00' 00"
Sunlit
Object was in daylight at epoch
Visualization orbit readout
Latitude
Unknown
Longitude
Unknown
Altitude
Unknown
Speed
Unknown
Apparent Right ascension
Unknown
Apparent Declination
Unknown
Sunlit
N/A
Visualization observer readout
Local Sidereal Time
18:25:42
Azimuth
Unknown
Elevation
Unknown
Doppler factor
Unknown
Orbital elements
Apogee altitude
875.214 km
Perigee altitude
795.704 km
Semi-major axis
7,213.596 km
Eccentricity
0.00551
Inclination
98.8488°
RAAN
240.236°
Arg. of periapsis
137.9272°
True anomaly
222.18987°
Mean anomaly
222.6153°
Eccentric anomaly
222.40237°
Mean motion
3.54255 °/min
Orbital period
101.62 mins
BSTAR
0.00084361
Loading maneuver chart data...
Computing Atmospheric mass density...
Loading historical data...
Loading historical data...
Loading historical data...
Loading historical data...
Loading historical data...
Loading historical data...
Loading historical data...

Documentation

Showing up to 5 results
|